Regional Weather Roundup
Issued by NWS

Home | Current Version | Previous Version | Graphics & Text | Print | Product List | Glossary On
Versions: 1 2 3 4 5 6 7 8 9 10 11 12 13 14 15 16 17 18 19 20 21 22 23 24 25 26 27 28 29 30 31 32 33 34 35 36 37 38 39 40 41 42 43 44 45 46 47 48 49 50
000
ASUS43 KLOT 260800
RWRIL

ILLINOIS REGIONAL WEATHER ROUNDUP
NATIONAL WEATHER SERVICE CHICAGO/ROMEOVILLE IL
300 AM CDT SUN APR 26 2015

NOTE: "FAIR" INDICATES FEW OR NO CLOUDS BELOW 12,000 FEET WITH NO
SIGNIFICANT WEATHER AND/OR OBSTRUCTIONS TO VISIBILITY.

* THESE STATIONS ARE NOT UNDER NWS QUALITY CONTROL. THEY ALSO MAY NOT
  REPORT WEATHER SUCH AS PRECIPITATION OR FOG.

ILZ001-002-007-009-015-016-024-260900-
NORTHWEST ILLINOIS

CITY           SKY/WX    TMP DP  RH WIND       PRES   REMARKS
MOLINE         CLEAR     42  33  70 CALM      29.92R
$$

ILZ003-004-008-010-011-017-018-260900-
NORTH CENTRAL ILLINOIS

CITY           SKY/WX    TMP DP  RH WIND       PRES   REMARKS
ROCKFORD       NOT AVBL
$$

ILZ005-006-012>014-019>023-260900-
NORTHEAST ILLINOIS

CITY           SKY/WX    TMP DP  RH WIND       PRES   REMARKS
CHICAGO-OHARE  CLEAR     37  29  72 N7        29.89R WCI  32
CHICAGO-MIDWAY NOT AVBL
AURORA         CLEAR     38  27  64 N9        29.90R WCI  31
WAUKEGAN       NOT AVBL
DUPAGE AIRPORT CLEAR     33  27  78 N8        29.89R WCI  26
WHEELING       CLEAR     35  29  78 N5        29.92R WCI  31
NORTHERLY ISL    N/A     42  34  73 N13         N/A
$$

LMZ740>746-260900-
SOUTHERN LAKE MICHIGAN

STATION/POSITION SKY/WX   TEMP    WIND        PRES    VSBY  WAVE
                          AIR SEA DIR/SP/G                  HT/PER
                          (F)     (DEG/KT/KT) (MB)    (MI)  (FT/S)
HARRISON CRIB              41      30/ 13/ 15   N/A
BURNHAM HARBOR             42      30/ 10/ 13   N/A
CALUMET HARBOR             41      10/  6/ 10   N/A
BURNS HARBOR               42      10/  9/ 10 1011.9R
MICHIGAN CITY              42      20/  9/ 10   N/A
MICHIGAN CITY 6N           42 45   50/  8/ 10   N/A           3/ 5
$$

ILZ025>027-034>036-040-047-049-050-058-095>099-260900-
WEST-CENTRAL ILLINOIS

CITY           SKY/WX    TMP DP  RH WIND       PRES   REMARKS
$$

ILZ028>032-037-038-041>044-048-051>054-059>061-260900-
CENTRAL ILLINOIS

CITY           SKY/WX    TMP DP  RH WIND       PRES   REMARKS
PEORIA         NOT AVBL
SPRINGFIELD    CLOUDY    47  42  83 NE14      29.84R
TAYLORVILLE    NOT AVBL
$$

ILZ033-039-045-046-055>057-062-063-260900-
EAST-CENTRAL ILLINOIS

CITY           SKY/WX    TMP DP  RH WIND       PRES   REMARKS
CHAMPAIGN      CLOUDY    44  38  79 N14       29.83R
$$

ILZ079-100>102-260900-
SOUTHWEST ILLINOIS

CITY           SKY/WX    TMP DP  RH WIND       PRES   REMARKS
BELLEVILLE     CLOUDY    48  48 100 N7        29.77S
CAHOKIA*       CLOUDY    48  45  89 N12G20    29.79S
$$

ILZ064>066-069>071-074>076-080>082-084>086-088>090-092>094-260900-
SOUTH-CENTRAL ILLINOIS

CITY           SKY/WX    TMP DP  RH WIND       PRES   REMARKS
CARBONDALE     CLOUDY    50  47  89 N10       29.74R FOG
$$

ILZ067-068-072-073-078-083-087-091-260900-
SOUTHEAST ILLINOIS

CITY           SKY/WX    TMP DP  RH WIND       PRES   REMARKS
LAWRENCEVILLE  CLOUDY    47  43  86 NE9       29.76R
$$

ABBREVIATIONS USED IN REMARKS
   TC - TEMPERATURE IN CELSIUS
  WCI - WIND CHILL INDEX
   HX - HEAT INDEX
  VSB - VISIBILITY
$$



USA.gov is the U.S. government's official web portal to all federal, state and local government web resources and services.